This demonstration page uses our WeatherBlox Daily Observations layout. Learn more.

Left ArrowRight Arrow

36.19886, -115.1175

Hourly Observations for December 29, 2018

Temp ( °F °C ) Dew Point ( °F °C ) Humidity (%) Winds ( mph kmh ) Pressure ( in mb ) Visibility ( mi km ) Precip ( " mm )
12:53 am 00:53 Clear 39 3.9 12 -11.1 33 33 N 16 26 30.36 1028 10 16.0934 N/A
1:53 am 01:53 Clear 38 3.3 12 -11.1 34 34 N 18 30 30.39 1029 10 16.0934 N/A
2:53 am 02:53 Clear 37 2.8 11 -11.7 34 34 N 17 28 30.38 1029 10 16.0934 N/A
3:53 am 03:53 Clear 36 2.2 11 -11.7 35 35 N 20 31 30.38 1029 10 16.0934 N/A
4:53 am 04:53 Clear 36 2.2 11 -11.7 35 35 N 18 30 30.41 1030 10 16.0934 N/A
5:53 am 05:53 Clear 35 1.7 11 -11.7 37 37 N 16 26 30.44 1031 10 16.0934 N/A
6:53 am 06:53 Sunny 34 1.1 11 -11.7 38 38 N 17 28 30.47 1032 10 16.0934 N/A
7:53 am 07:53 Sunny 35 1.7 11 -11.7 37 37 N 17 28 30.48 1032 10 16.0934 N/A
8:53 am 08:53 Sunny 39 3.9 11 -11.7 31 31 NNE 7 11 30.49 1033 10 16.0934 N/A
9:53 am 09:53 Sunny 43 6.1 9 -12.8 25 25 NNW 12 19 30.48 1032 10 16.0934 N/A
10:53 am 10:53 Sunny 44 6.7 7 -13.9 22 22 N 14 22 30.44 1031 10 16.0934 N/A
11:53 am 11:53 Sunny 47 8.3 6 -14.4 19 19 N 14 22 30.4 1029 10 16.0934 N/A
12:53 pm 12:53 Sunny 48 8.9 6 -14.4 18 18 N 15 24 30.36 1028 10 16.0934 N/A
1:53 pm 13:53 Sunny 50 10 5 -15 16 16 N 10 17 30.34 1027 10 16.0934 N/A
2:53 pm 14:53 Sunny 51 10.6 4 -15.6 14 14 N 14 22 30.34 1028 10 16.0934 N/A
3:53 pm 15:53 Sunny 50 10 6 -14.4 17 17 E 10 17 30.34 1027 10 16.0934 N/A
4:53 pm 16:53 Clear 47 8.3 5 -15 18 18 SSE 5 7 30.34 1028 10 16.0934 N/A
5:53 pm 17:53 Clear 46 7.8 8 -13.3 21 21 SSW 5 7 30.36 1028 10 16.0934 N/A
6:53 pm 18:53 Clear 45 7.2 8 -13.3 22 22 WSW 5 7 30.35 1028 10 16.0934 N/A
7:53 pm 19:53 Clear 45 7.2 9 -12.8 23 23 N N/A 30.34 1028 10 16.0934 N/A
8:53 pm 20:53 Clear 42 5.6 10 -12.2 27 27 WNW 5 7 30.33 1027 10 16.0934 N/A
9:53 pm 21:53 Clear 42 5.6 11 -11.7 28 28 W 6 9 30.32 1027 10 16.0934 N/A
10:53 pm 22:53 Clear 40 4.4 12 -11.1 32 32 WNW 6 9 30.31 1026 10 16.0934 N/A
11:53 pm 23:53 Clear 39 3.9 12 -11.1 33 33 NNW 7 11 30.29 1026 10 16.0934 N/A

Powered by AerisWeather